Overview Statistics Trail Chart Weather Telemetry Raw packets
 

This is the latest recevied weather packets stored in our database for station/object KQ7A. If no packets are shown the sender has not sent any weather packets the latest 10 day(s).

<< 74 75 76 77 78 79 80 >>
Time Temp. Humidity Pressure Rain* Wind** Luminosity Snow
1788149817 18.33° C 49% 1017.7 hPa 0 mm - 0 W/m² -
1788149511 18.89° C 47% 1017.7 hPa 0 mm - 0 W/m² -
1788149206 19.44° C 45% 1017.7 hPa 0 mm - 0 W/m² -
1788148905 18.33° C 46% 1017.5 hPa 0 mm - 0 W/m² -
1788148603 18.33° C 47% 1017.6 hPa 0 mm - 0 W/m² -
1788148298 18.33° C 48% 1017.7 hPa 0 mm - 0 W/m² -
1788147997 18.33° C 47% 1017.7 hPa 0 mm - 0 W/m² -
1788147692 18.33° C 48% 1017.5 hPa 0 mm - 0 W/m² -
1788147388 18.33° C 49% 1017.6 hPa 0 mm - 0 W/m² -
1788147083 18.33° C 48% 1017.3 hPa 0 mm - 0 W/m² -
1788146777 19.44° C 44% 1017 hPa 0 mm - 0 W/m² -
1788146473 18.89° C 47% 1017.3 hPa 0 mm - 0 W/m² -
1788146173 18.33° C 49% 1017 hPa 0 mm - 0 W/m² -
1788145872 18.89° C 47% 1016.9 hPa 0 mm - 0 W/m² -
1788145571 19.44° C 48% 1017.1 hPa 0 mm - 0 W/m² -
1788145270 19.44° C 48% 1016.8 hPa 0 mm - 0 W/m² -
1788144969 20° C 45% 1016.8 hPa 0 mm - 0 W/m² -
1788144664 20.56° C 49% 1016.8 hPa 0 mm - 0 W/m² -
1788144361 20° C 43% 1016.7 hPa 0 mm - 0 W/m² -
1788144058 21.11° C 45% 1016.7 hPa 0 mm - 0 W/m² -
1788143751 21.11° C 44% 1016.4 hPa 0 mm - 1 W/m² -
1788143451 22.22° C 41% 1016.4 hPa 0 mm - 3 W/m² -
1788143146 22.22° C 42% 1016.8 hPa 0 mm - 5 W/m² -
1788142841 23.33° C 39% 1016.3 hPa 0 mm - 8 W/m² -
1788142539 22.78° C 36% 1016.4 hPa 0 mm - 11 W/m² -

* Rain latest hour (hover to see other rain measurements)
** Current wind speed in m/s (hover to see current wind gust speed)